EW5291 Weather Reports


Display with metric or nautical units.
time (UTC)temp
F
wind
direction
speed
MPH
gust
MPH
rain 1hr
in
rain 24hr
in
rain mn
in
humidity
%
barometer
mb
20260906183114 69 190 0.0 0.0 0.00 0.78 0.48 70 1014.6
20260906182503 69 0 0.0 0.0 0.00 0.78 0.48 72 1014.5
20260906182003 68 191 0.0 6.0 0.00 0.78 0.48 72 1014.5
20260906181604 68 190 0.0 6.0 0.00 0.78 0.48 73 1014.8
20260906180504 68 0 0.0 0.0 0.00 0.78 0.48 75 1014.6
20260906180125 68 190 0.0 0.0 0.00 0.78 0.48 73 1014.8
20260906180004 68 0 0.0 0.0 0.00 0.78 0.48 73 1014.5
20260906175503 69 0 0.0 0.0 0.00 0.78 0.48 71 1014.6
20260906175003 70 0 0.0 0.0 0.00 0.78 0.48 71 1014.6
20260906174625 69 190 0.0 0.0 0.00 0.78 0.48 72 1014.9
20260906174504 70 0 0.0 0.0 0.00 0.78 0.48 72 1014.6
20260906174004 69 0 0.0 0.0 0.00 0.78 0.48 73 1014.7
20260906173503 68 0 0.0 0.0 0.00 0.78 0.48 77 1014.7
20260906173102 67 190 0.0 0.0 0.00 0.78 0.48 76 1014.9
20260906173003 68 0 0.0 0.0 0.00 0.78 0.48 76 1014.6
20260906172504 68 0 0.0 0.0 0.00 0.78 0.48 74 1014.8
20260906172004 68 0 0.0 0.0 0.00 0.78 0.48 75 1014.7
20260906171615 67 190 0.0 0.0 0.00 0.78 0.48 74 1014.9
20260906171503 68 0 0.0 0.0 0.00 0.78 0.48 74 1014.8
20260906171003 67 0 0.0 0.0 0.00 0.78 0.48 77 1015.0
20260906170504 66 0 0.0 0.0 0.00 0.78 0.48 74 1015.0
20260906170116 66 190 0.0 0.0 0.00 0.78 0.48 76 1015.3
20260906170003 67 191 0.0 1.0 0.00 0.78 0.48 76 1015.1
20260906165503 67 191 0.0 1.0 0.00 0.78 0.48 76 1015.1
20260906165003 67 190 0.0 1.0 0.00 0.78 0.48 74 1015.0
20260906164602 66 190 0.0 1.0 0.00 0.78 0.48 75 1015.3
20260906164503 66 190 0.0 1.0 0.00 0.78 0.48 75 1015.1
20260906163503 66 191 0.0 1.0 0.00 0.78 0.48 75 1015.2
20260906163109 65 190 0.0 0.0 0.00 0.78 0.48 78 1015.4
20260906163004 66 0 0.0 0.0 0.00 0.78 0.48 77 1015.2
20260906162504 66 0 0.0 0.0 0.00 0.78 0.48 76 1015.2
20260906162004 66 0 0.0 0.0 0.00 0.78 0.48 78 1015.3
20260906161624 65 190 0.0 0.0 0.00 0.78 0.48 79 1015.5
20260906161503 66 0 0.0 0.0 0.00 0.78 0.48 78 1015.4
20260906161004 66 0 0.0 0.0 0.00 0.78 0.48 78 1015.4
20260906160503 66 0 0.0 0.0 0.00 0.78 0.48 78 1015.5
20260906160104 65 190 0.0 0.0 0.00 0.78 0.48 77 1015.7
20260906160004 66 0 0.0 0.0 0.00 0.78 0.48 76 1015.5
20260906155503 66 0 0.0 0.0 0.00 0.78 0.48 76 1015.6
20260906155003 66 0 0.0 0.0 0.00 0.78 0.48 75 1015.6
20260906154605 66 190 0.0 0.0 0.00 0.78 0.48 74 1015.8
20260906154504 66 0 0.0 0.0 0.00 0.78 0.48 73 1015.6
20260906154003 67 0 0.0 0.0 0.00 0.78 0.48 76 1015.6
20260906153503 67 0 0.0 0.0 0.00 0.78 0.48 74 1015.5
20260906153123 66 190 0.0 1.0 0.00 0.78 0.48 75 1015.7
20260906153003 66 0 0.0 0.0 0.00 0.78 0.48 74 1015.6
20260906152503 66 0 0.0 0.0 0.00 0.78 0.48 78 1015.6
20260906151602 65 190 0.0 0.0 0.00 0.78 0.48 77 1015.7
20260906151004 65 0 0.0 0.0 0.00 0.78 0.48 81 1015.7
20260906150503 65 0 0.0 0.0 0.00 0.78 0.48 82 1015.7
20260906150109 64 190 0.0 0.0 0.00 0.78 0.48 82 1015.9
20260906150004 64 0 0.0 0.0 0.00 0.78 0.48 82 1015.7
20260906145003 63 0 0.0 0.0 0.00 0.78 0.48 82 1015.7
20260906144603 62 190 0.0 0.0 0.00 0.78 0.48 83 1015.9
20260906144503 63 0 0.0 0.0 0.00 0.78 0.48 82 1015.6
20260906144003 63 0 0.0 0.0 0.01 0.78 0.48 82 1015.6
20260906143503 62 0 0.0 0.0 0.02 0.78 0.48 82 1015.7
20260906143103 61 190 0.0 0.0 0.03 0.78 0.48 82 1015.8
20260906142003 61 0 0.0 0.0 0.05 0.78 0.48 82 1015.6
20260906141621 61 190 0.0 0.0 0.05 0.78 0.48 82 1015.8
20260906141503 61 0 0.0 0.0 0.05 0.78 0.48 82 1015.6
20260906141003 61 0 0.0 0.0 0.05 0.78 0.48 82 1015.6
20260906140504 61 0 0.0 0.0 0.05 0.78 0.48 82 1015.6
20260906140003 60 0 0.0 0.0 0.05 0.78 0.48 82 1015.5
20260906135503 60 0 0.0 0.0 0.05 0.78 0.48 82 1015.5
20260906135003 60 0 0.0 0.0 0.05 0.78 0.48 82 1015.5
20260906134602 60 190 0.0 0.0 0.09 0.78 0.48 82 1015.8
20260906134504 60 0 0.0 0.0 0.05 0.78 0.48 82 1015.6
20260906134004 60 0 0.0 0.0 0.04 0.77 0.47 82 1015.5
20260906133504 60 0 0.0 0.0 0.03 0.76 0.46 82 1015.6
20260906133110 59 190 0.0 0.0 0.08 0.75 0.45 82 1015.8
20260906133003 60 0 0.0 0.0 0.02 0.75 0.45 82 1015.5
20260906132504 60 0 0.0 0.0 0.06 0.74 0.44 82 1015.5
20260906130011 59 190 0.0 0.0 0.23 0.72 0.42 82 1015.5
20260906124504 59 190 0.0 0.0 0.28 0.70 0.40 82 1015.6
20260906123002 59 190 0.0 0.0 0.32 0.68 0.38 82 1015.3
20260906121504 59 190 0.0 0.0 0.20 0.56 0.26 82 1015.3
20260906120106 59 190 0.0 0.0 0.13 0.49 0.19 82 1015.2
20260906114558 60 190 0.0 0.0 0.06 0.42 0.12 82 1015.1
20260906113055 60 190 0.0 0.0 0.00 0.36 0.06 82 1014.9
20260906111553 59 190 0.0 0.0 0.01 0.36 0.06 82 1014.6
20260906110050 60 190 0.0 0.0 0.02 0.36 0.06 82 1014.3
20260906104550 59 190 0.0 0.0 0.02 0.36 0.06 82 1014.2
20260906103049 59 190 0.0 0.0 0.01 0.35 0.05 82 1014.0
20260906101546 60 190 0.0 0.0 0.01 0.35 0.05 82 1013.7
20260906100043 60 190 0.0 0.0 0.00 0.34 0.04 82 1013.7
20260906094545 60 190 0.0 0.0 0.00 0.34 0.04 82 1013.5
20260906093042 60 190 0.0 0.0 0.00 0.34 0.04 82 1013.5
20260906091539 60 190 0.0 0.0 0.00 0.34 0.04 82 1013.4
20260906090049 60 190 0.0 0.0 0.00 0.34 0.04 82 1013.2
20260906084539 60 190 0.0 0.0 0.00 0.34 0.04 82 1013.1
20260906083045 60 190 0.0 0.0 0.00 0.34 0.04 82 1013.3
20260906081536 60 190 0.0 0.0 0.00 0.34 0.04 82 1013.2
20260906080039 60 190 0.0 0.0 0.00 0.34 0.04 82 1013.1
20260906074534 60 190 0.0 0.0 0.00 0.34 0.04 82 1013.1
20260906073034 60 190 0.0 0.0 0.00 0.34 0.04 82 1013.2
20260906071533 60 190 0.0 0.0 0.00 0.34 0.04 82 1013.1
20260906070031 60 190 0.0 0.0 0.01 0.34 0.04 82 1013.0
20260906064531 60 190 0.0 0.0 0.02 0.34 0.04 82 1013.1
20260906063030 60 190 0.0 0.0 0.02 0.34 0.04 82 1013.2
20260906061530 60 190 0.0 0.0 0.03 0.34 0.04 82 1013.3
20260906060028 60 190 0.0 0.0 0.02 0.33 0.03 82 1013.4
20260906054528 60 190 0.0 0.0 0.01 0.32 0.02 82 1013.4
20260906053026 60 190 0.0 0.0 0.01 0.32 0.02 82 1013.3
20260906051525 61 190 0.0 0.0 0.00 0.31 0.01 82 1013.3
20260906050024 61 190 0.0 0.0 0.01 0.31 0.01 82 1013.2
20260906044522 61 190 0.0 0.0 0.01 0.31 0.01 82 1013.0
20260906043029 61 190 0.0 0.0 0.01 0.31 0.01 82 1013.0
20260906041521 61 190 0.0 0.0 0.01 0.31 0.01 82 1012.9
20260906040019 61 190 0.0 0.0 0.00 0.30 0.30 82 1013.1
20260906034531 61 190 0.0 0.0 0.00 0.30 0.30 82 1013.1
20260906033016 61 190 0.0 0.0 0.00 0.30 0.30 82 1012.9
20260906031524 61 190 0.0 0.0 0.00 0.30 0.30 82 1012.8
20260906031004 62 0 0.0 0.0 0.00 0.30 0.30 82 1012.6
20260906030004 62 0 0.0 0.0 0.00 0.30 0.30 82 1012.4
20260906025503 62 0 0.0 0.0 0.00 0.30 0.30 82 1012.3
20260906025004 62 0 0.0 0.0 0.00 0.30 0.30 82 1012.4
20260906024616 62 190 0.0 0.0 0.00 0.30 0.30 82 1012.7
20260906024503 62 0 0.0 0.0 0.00 0.30 0.30 82 1012.5
20260906024003 62 0 0.0 0.0 0.00 0.30 0.30 82 1012.6
20260906023503 62 0 0.0 0.0 0.00 0.30 0.30 82 1012.5
20260906023104 62 190 0.0 0.0 0.00 0.30 0.30 82 1012.7
20260906023003 62 0 0.0 0.0 0.00 0.30 0.30 82 1012.5
20260906022003 62 0 0.0 0.0 0.00 0.30 0.30 82 1012.7
20260906021606 62 190 0.0 0.0 0.00 0.30 0.30 82 1012.8
20260906021504 62 0 0.0 0.0 0.00 0.30 0.30 82 1012.6
20260906021003 62 0 0.0 0.0 0.00 0.30 0.30 82 1012.5
20260906020503 63 0 0.0 0.0 0.00 0.30 0.30 82 1012.5
20260906020104 62 190 0.0 0.0 0.00 0.30 0.30 82 1012.6
20260906020004 63 0 0.0 0.0 0.00 0.30 0.30 82 1012.4
20260906015504 63 0 0.0 0.0 0.00 0.30 0.30 82 1012.3
20260906015004 63 0 0.0 0.0 0.00 0.30 0.30 82 1012.4
20260906014607 63 190 0.0 0.0 0.00 0.30 0.30 82 1012.6
20260906014504 63 0 0.0 0.0 0.00 0.30 0.30 82 1012.4
20260906014004 64 0 0.0 0.0 0.00 0.30 0.30 82 1012.3
20260906013104 63 190 0.0 0.0 0.00 0.30 0.30 82 1012.6
20260906013004 64 0 0.0 0.0 0.00 0.30 0.30 82 1012.4
20260906012503 64 0 0.0 0.0 0.00 0.30 0.30 82 1012.5
20260906012004 64 0 0.0 0.0 0.00 0.30 0.30 82 1012.2
20260906011604 64 190 0.0 0.0 0.00 0.30 0.30 82 1012.3
20260906011504 64 191 0.0 2.0 0.00 0.30 0.30 82 1012.1
20260906011003 64 191 0.0 3.0 0.01 0.30 0.30 82 1012.1
20260906010504 65 191 0.0 3.0 0.01 0.30 0.30 82 1012.1
20260906010145 65 190 0.0 1.0 0.01 0.30 0.30 82 1012.3
20260906010004 65 190 0.0 1.0 0.01 0.30 0.30 82 1012.1
20260906005503 65 0 0.0 0.0 0.02 0.30 0.30 82 1012.0
20260906005003 65 0 0.0 0.0 0.02 0.30 0.30 82 1011.9
20260906004617 65 190 0.0 0.0 0.02 0.30 0.30 82 1012.1
20260906004504 65 0 0.0 0.0 0.02 0.30 0.30 82 1011.9
20260906004004 65 0 0.0 0.0 0.02 0.30 0.30 82 1011.8
20260906003503 66 0 0.0 0.0 0.02 0.30 0.30 82 1011.8
20260906003103 65 190 0.0 0.0 0.02 0.30 0.30 82 1011.9
20260906003003 66 0 0.0 0.0 0.02 0.30 0.30 82 1011.7
20260906002503 66 0 0.0 0.0 0.02 0.30 0.30 82 1011.7
20260906001607 65 190 0.0 0.0 0.02 0.30 0.30 82 1011.8
20260906000504 66 0 0.0 0.0 0.01 0.29 0.29 82 1011.5
20260906000003 66 0 0.0 0.0 0.00 0.28 0.28 82 1011.5
20260905235503 66 0 0.0 0.0 0.00 0.28 0.28 82 1011.4
20260905235003 66 0 0.0 0.0 0.00 0.28 0.28 82 1011.2
20260905234606 66 190 0.0 0.0 0.00 0.28 0.28 82 1011.3
20260905234503 66 0 0.0 0.0 0.00 0.28 0.28 82 1011.1
20260905234003 67 0 0.0 0.0 0.00 0.28 0.28 82 1011.0
20260905233503 67 0 0.0 0.0 0.00 0.28 0.28 82 1011.0
20260905233103 66 190 0.0 0.0 0.00 0.28 0.28 82 1011.1
20260905233003 67 0 0.0 0.0 0.00 0.28 0.28 82 1010.9
20260905232003 67 0 0.0 0.0 0.00 0.28 0.28 82 1010.9
20260905231614 67 190 0.0 0.0 0.00 0.28 0.28 82 1011.1
20260905231503 67 0 0.0 0.0 0.00 0.28 0.28 82 1010.9
20260905231003 67 0 0.0 0.0 0.00 0.28 0.28 82 1010.9
20260905230503 67 0 0.0 0.0 0.00 0.28 0.28 82 1010.8
20260905225504 68 0 0.0 0.0 0.00 0.28 0.28 82 1010.7
20260905225003 68 0 0.0 0.0 0.00 0.28 0.28 82 1010.8
20260905224603 67 190 0.0 0.0 0.00 0.28 0.28 82 1010.9
20260905224503 68 0 0.0 0.0 0.00 0.28 0.28 82 1010.7
20260905224003 68 0 0.0 0.0 0.00 0.28 0.28 81 1010.6
20260905223503 68 0 0.0 0.0 0.00 0.28 0.28 81 1010.6
20260905223102 67 190 0.0 0.0 0.00 0.28 0.28 81 1010.9
20260905223003 68 0 0.0 0.0 0.00 0.28 0.28 81 1010.6
20260905222503 68 0 0.0 0.0 0.01 0.28 0.28 81 1010.6
20260905221603 68 190 0.0 0.0 0.01 0.28 0.28 81 1010.7
20260905221504 68 0 0.0 0.0 0.01 0.28 0.28 81 1010.5
20260905220503 68 0 0.0 0.0 0.02 0.28 0.28 81 1010.3
20260905220003 68 0 0.0 0.0 0.06 0.28 0.28 81 1010.3
20260905215503 68 0 0.0 0.0 0.07 0.28 0.28 81 1010.2
20260905215003 68 0 0.0 0.0 0.07 0.28 0.28 81 1010.2
20260905214603 68 190 0.0 0.0 0.20 0.28 0.28 81 1010.3
20260905214504 68 0 0.0 0.0 0.21 0.28 0.28 81 1010.2
20260905214004 68 0 0.0 0.0 0.28 0.28 0.28 81 1010.3
20260905213504 68 0 0.0 0.0 0.28 0.28 0.28 81 1010.1
20260905213103 68 190 0.0 0.0 0.28 0.28 0.28 81 1010.3
20260905213003 68 0 0.0 0.0 0.28 0.28 0.28 81 1010.1
20260905212503 68 0 0.0 0.0 0.27 0.27 0.27 80 1010.0
20260905212003 68 0 0.0 0.0 0.27 0.27 0.27 80 1009.9
20260905211610 68 190 0.0 0.0 0.27 0.27 0.27 80 1009.9
20260905211503 68 0 0.0 0.0 0.27 0.27 0.27 79 1009.8
20260905211003 69 0 0.0 0.0 0.27 0.27 0.27 79 1010.0
20260905210503 69 0 0.0 0.0 0.25 0.25 0.25 78 1010.0
20260905210120 69 190 0.0 0.0 0.22 0.22 0.22 76 1010.1
20260905210003 70 0 0.0 0.0 0.22 0.22 0.22 76 1009.9
20260905205503 71 0 0.0 0.0 0.21 0.21 0.21 74 1009.8
20260905205003 72 0 0.0 0.0 0.21 0.21 0.21 72 1009.8
20260905204604 72 190 0.0 0.0 0.07 0.07 0.07 69 1010.0
20260905204503 73 0 0.0 0.0 0.06 0.06 0.06 68 1009.7
20260905204003 74 0 0.0 0.0 0.00 0.00 0.00 66 1009.4
20260905203503 74 0 0.0 0.0 0.00 0.00 0.00 65 1009.5
20260905203103 74 190 0.0 1.0 0.00 0.00 0.00 62 1009.5
20260905203003 74 191 0.0 1.0 0.00 0.00 0.00 62 1009.4
20260905202503 75 191 0.0 1.0 0.00 0.00 0.00 59 1009.4
20260905202003 75 0 0.0 0.0 0.00 0.00 0.00 59 1009.4
20260905201602 75 190 0.0 0.0 0.00 0.00 0.00 62 1009.6
20260905201503 75 0 0.0 0.0 0.00 0.00 0.00 60 1009.4
20260905201003 76 0 0.0 0.0 0.00 0.00 0.00 62 1009.4
20260905200127 76 190 0.0 0.0 0.00 0.00 0.00 62 1009.3
20260905200003 76 191 0.0 1.0 0.00 0.00 0.00 61 1009.2
20260905195503 77 191 0.0 1.0 0.00 0.00 0.00 58 1009.2
20260905195004 77 0 0.0 0.0 0.00 0.00 0.00 58 1009.2
20260905194602 76 190 0.0 0.0 0.00 0.00 0.00 59 1009.4
20260905194503 76 0 0.0 0.0 0.00 0.00 0.00 59 1009.3
20260905194003 77 0 0.0 0.0 0.00 0.00 0.00 59 1009.3
20260905193503 77 0 0.0 0.0 0.00 0.00 0.00 60 1009.3
20260905193103 77 190 0.0 0.0 0.00 0.00 0.00 59 1009.3
20260905193004 77 0 0.0 0.0 0.00 0.00 0.00 59 1009.2
20260905192504 77 0 0.0 0.0 0.00 0.00 0.00 59 1009.3
20260905192004 77 0 0.0 0.0 0.00 0.00 0.00 59 1009.3
20260905191602 77 190 0.0 0.0 0.00 0.00 0.00 60 1009.3
20260905191504 77 0 0.0 0.0 0.00 0.00 0.00 59 1009.3
20260905191003 76 191 0.0 1.0 0.00 0.00 0.00 63 1009.3
20260905190503 76 191 0.0 1.0 0.00 0.00 0.00 60 1009.2
20260905190003 74 0 0.0 0.0 0.00 0.00 0.00 68 1009.3
20260905185504 73 0 0.0 0.0 0.00 0.00 0.00 66 1009.3
20260905185004 73 0 0.0 0.0 0.00 0.00 0.00 68 1009.4
20260905184609 73 190 0.0 0.0 0.00 0.00 0.00 67 1009.5
20260905183504 73 0 0.0 0.0 0.00 0.00 0.00 67 1009.4